Torna al catalogo

ORBCOMM FM 113

AttivoComunicazioniLEO
NORAD 41185·PAYLOAD·🇺🇸 United States

Lanciato Dec 22, 2015 da Cape Canaveral Space Force Station

Loading…

Prossimi Passaggi (prossime 24 ore)

TLE

AggiornatoSource: Space-Track

Epoca: Sep 14, 2026, 05:14 UTC

1 41185U 15081G   26257.21852761  .00000301  00000-0  99835-4 0  9990
2 41185  46.9996 209.6345 0002361 270.0502  90.0113 14.58931013571935

Traccia ORBCOMM FM 113 in tempo reale con AllMySat

Download on the App Store